QPF
0.00 0.00 0.00 0.00 0.00 0.00 0.00 0.00 0.00 0.00 0.00 0.00 0.00 0.00 0.00 0.00 0.00 0.00 0.00 0.00 0.00 0.00 0.00 0.00 0.00 0.00 0.00 0.00 0.00 0.00 0.00 0.00 0.00 0.00 0.00 0.00 0.00 0.00 0.00 0.00 0.00 0.00 0.00 0.00 0.00 0.00 0.00 0.00 0.00
0.00 0.00 0.00 0.00 0.00 0.00 0.00 0.00 0.00 0.00 0.00 0.00 0.00 0.00 0.00 0.00 0.00 0.00 0.00 0.00 0.00 0.00 0.00 0.00 0.00 0.00 0.00 0.00 0.00 0.00 0.00 0.00 0.00 0.00 0.00 0.00 0.00 0.00 0.00 0.00 0.00 0.00 0.00 0.00 0.00 0.00 0.00 0.00 0.00
0.00 0.00 0.00 0.00 0.00 0.00 0.00 0.00 0.00 0.00 0.00 0.00 0.00 0.00 0.00 0.00 0.00 0.00 0.00 0.00 0.00 0.00 0.00 0.00 0.00 0.00 0.00 0.00 0.00 0.00 0.00 0.00 0.00 0.00 0.00 0.00 0.00 0.00 0.00 0.00 0.00 0.00 0.00 0.00 0.00 0.00 0.00 0.01 0.00
0.00 0.00 0.00 0.00 0.00 0.00 0.00 0.00 0.00 0.00 0.00 0.00 0.00 0.00 0.00 0.00 0.00 0.00 0.00 0.00 0.00 0.00 0.00 0.00 0.00 0.00 0.00 0.00 0.00 0.00 0.00 0.00 0.00 0.00 0.00 0.00 0.00 0.00 0.00 0.00 0.00 0.00 0.00 0.00 0.00 0.00 0.01 0.00 0.01
0.00 0.00 0.00 0.00 0.00 0.00 0.00 0.00 0.00 0.00 0.00 0.00 0.00 0.00 0.00 0.00 0.00 0.00 0.00 0.00 0.00 0.00 0.00 0.00 0.00 0.00 0.00 0.00 0.00 0.00 0.00 0.00 0.00 0.00 0.00 0.00 0.00 0.00 0.00 0.00 0.00 0.00 0.01 0.01 0.02 0.02 0.01 0.00 0.00
0.00 0.00 0.00 0.00 0.00 0.00 0.00 0.00 0.00 0.00 0.00 0.00 0.00 0.00 0.00 0.00 0.00 0.00 0.00 0.00 0.00 0.00 0.00 0.00 0.00 0.00 0.00 0.00 0.00 0.00 0.00 0.00 0.00 0.00 0.00 0.00 0.00 0.00 0.00 0.00 0.00 0.00 0.01 0.02 0.03 0.03 0.02 0.01 0.00
0.00 0.00 0.00 0.00 0.00 0.00 0.00 0.00 0.00 0.00 0.00 0.00 0.00 0.00 0.00 0.00 0.00 0.00 0.00 0.00 0.00 0.00 0.00 0.00 0.00 0.00 0.00 0.00 0.00 0.00 0.00 0.00 0.00 0.00 0.00 0.00 0.00 0.00 0.00 0.00 0.00 0.00 0.00 0.00 0.00 0.00 0.00 0.01 0.00
0.00 0.00 0.00 0.00 0.00 0.00 0.00 0.00 0.00 0.00 0.00 0.00 0.00 0.00 0.00 0.00 0.00 0.00 0.00 0.00 0.00 0.00 0.00 0.00 0.00 0.00 0.00 0.00 0.00 0.00 0.00 0.00 0.00 0.00 0.00 0.00 0.00 0.00 0.00 0.00 0.00 0.00 0.00 0.00 0.00 0.00 0.00 0.00 0.00
0.00 0.00 0.00 0.00 0.00 0.00 0.00 0.00 0.00 0.00 0.00 0.00 0.00 0.00 0.00 0.00 0.00 0.00 0.00 0.00 0.00 0.00 0.00 0.00 0.00 0.00 0.00 0.00 0.00 0.00 0.00 0.00 0.00 0.00 0.00 0.00 0.00 0.00 0.00 0.00 0.00 0.00 0.00 0.00 0.00 0.00 0.00 0.00 0.00
0.00 0.00 0.00 0.00 0.00 0.00 0.00 0.00 0.00 0.00 0.00 0.00 0.00 0.00 0.00 0.00 0.00 0.00 0.00 0.00 0.00 0.00 0.00 0.00 0.00 0.00 0.00 0.00 0.00 0.00 0.00 0.00 0.00 0.00 0.00 0.00 0.00 0.00 0.00 0.00 0.00 0.00 0.00 0.00 0.00 0.00 0.00 0.00 0.00
0.00 0.00 0.00 0.00 0.00 0.00 0.00 0.00 0.00 0.00 0.00 0.00 0.00 0.00 0.00 0.00 0.00 0.00 0.00 0.00 0.00 0.00 0.00 0.00 0.00 0.00 0.00 0.00 0.00 0.00 0.00 0.00 0.00 0.00 0.00 0.00 0.00 0.00 0.00 0.00 0.00 0.00 0.00 0.00 0.00 0.00 0.00 0.00 0.00
0.00 0.00 0.00 0.00 0.00 0.00 0.00 0.00 0.00 0.00 0.00 0.00 0.00 0.00 0.00 0.00 0.00 0.00 0.00 0.00 0.00 0.00 0.00 0.00 0.00 0.00 0.00 0.00 0.00 0.00 0.00 0.00 0.00 0.00 0.00 0.00 0.00 0.00 0.00 0.00 0.00 0.00 0.00 0.00 0.00 0.00 0.00 0.00 0.00
0.00 0.00 0.00 0.00 0.00 0.00 0.00 0.00 0.00 0.00 0.00 0.00 0.00 0.00 0.00 0.00 0.00 0.00 0.00 0.00 0.00 0.00 0.00 0.00 0.00 0.00 0.00 0.00 0.00 0.00 0.00 0.00 0.00 0.00 0.00 0.00 0.00 0.00 0.00 0.00 0.00 0.00 0.00 0.00 0.00 0.00 0.01 0.01 0.00
0.00 0.00 0.00 0.00 0.00 0.00 0.00 0.00 0.00 0.00 0.00 0.00 0.00 0.00 0.00 0.00 0.00 0.00 0.00 0.00 0.00 0.00 0.00 0.00 0.00 0.00 0.00 0.00 0.00 0.00 0.00 0.00 0.00 0.00 0.00 0.00 0.00 0.00 0.00 0.00 0.00 0.00 0.01 0.00 0.00 0.01 0.02 0.01 0.00
0.00 0.00 0.00 0.00 0.00 0.00 0.00 0.00 0.00 0.00 0.00 0.00 0.00 0.00 0.00 0.00 0.00 0.00 0.00 0.00 0.00 0.00 0.00 0.00 0.00 0.00 0.00 0.00 0.00 0.00 0.00 0.00 0.00 0.00 0.00 0.00 0.00 0.00 0.00 0.01 0.03 0.05 0.06 0.05 0.03 0.02 0.01 0.00 0.00
0.00 0.00 0.00 0.00 0.00 0.00 0.00 0.00 0.00 0.00 0.00 0.00 0.00 0.00 0.00 0.00 0.00 0.00 0.00 0.00 0.00 0.00 0.00 0.00 0.00 0.00 0.00 0.00 0.00 0.00 0.00 0.00 0.00 0.00 0.00 0.00 0.00 0.00 0.01 0.02 0.03 0.07 0.09 0.07 0.06 0.05 0.03 0.00 0.00
0.00 0.00 0.00 0.00 0.00 0.00 0.00 0.00 0.00 0.00 0.00 0.00 0.00 0.00 0.00 0.00 0.00 0.00 0.00 0.00 0.00 0.00 0.00 0.00 0.00 0.00 0.00 0.00 0.00 0.00 0.00 0.00 0.00 0.00 0.00 0.00 0.00 0.00 0.00 0.02 0.05 0.09 0.09 0.07 0.06 0.05 0.04 0.03 0.00
0.00 0.00 0.00 0.00 0.00 0.00 0.00 0.00 0.00 0.00 0.00 0.00 0.00 0.00 0.00 0.00 0.00 0.00 0.00 0.00 0.00 0.00 0.00 0.00 0.00 0.00 0.00 0.00 0.00 0.00 0.00 0.00 0.00 0.00 0.00 0.00 0.00 0.00 0.00 0.02 0.05 0.09 0.09 0.08 0.08 0.07 0.06 0.03 0.04
0.00 0.00 0.00 0.00 0.00 0.00 0.00 0.00 0.00 0.00 0.00 0.00 0.00 0.00 0.00 0.00 0.00 0.00 0.00 0.00 0.00 0.00 0.00 0.00 0.00 0.00 0.00 0.00 0.00 0.00 0.00 0.00 0.00 0.00 0.00 0.00 0.00 0.00 0.00 0.02 0.05 0.08 0.10 0.09 0.09 0.06 0.04 0.06 0.05
0.00 0.00 0.00 0.00 0.00 0.00 0.00 0.00 0.00 0.00 0.00 0.00 0.00 0.00 0.00 0.00 0.00 0.00 0.00 0.00 0.00 0.00 0.00 0.00 0.00 0.00 0.00 0.00 0.00 0.00 0.00 0.00 0.00 0.00 0.00 0.00 0.00 0.00 0.00 0.01 0.08 0.12 0.11 0.06 0.07 0.08 0.08 0.07 0.07
0.00 0.00 0.00 0.00 0.00 0.00 0.00 0.00 0.00 0.00 0.00 0.00 0.00 0.00 0.00 0.00 0.00 0.00 0.00 0.00 0.00 0.00 0.00 0.00 0.00 0.00 0.00 0.00 0.00 0.00 0.00 0.00 0.00 0.00 0.00 0.00 0.00 0.00 0.01 0.05 0.08 0.08 0.07 0.07 0.10 0.13 0.09 0.07 0.12
0.00 0.00 0.00 0.00 0.00 0.00 0.00 0.00 0.00 0.00 0.00 0.00 0.00 0.00 0.00 0.00 0.00 0.00 0.00 0.00 0.00 0.00 0.00 0.00 0.00 0.00 0.00 0.00 0.00 0.00 0.00 0.00 0.00 0.00 0.00 0.00 0.00 0.00 0.02 0.11 0.06 0.03 0.09 0.07 0.08 0.05 0.05 0.11 0.16
0.00 0.00 0.00 0.00 0.00 0.00 0.00 0.00 0.00 0.00 0.00 0.00 0.00 0.00 0.00 0.00 0.00 0.00 0.00 0.00 0.00 0.00 0.00 0.00 0.00 0.00 0.00 0.00 0.00 0.00 0.00 0.00 0.00 0.00 0.00 0.01 0.03 0.05 0.07 0.04 0.03 0.06 0.08 0.08 0.09 0.09 0.08 0.14 0.19
0.00 0.00 0.00 0.00 0.00 0.00 0.00 0.00 0.00 0.00 0.00 0.00 0.00 0.00 0.00 0.00 0.00 0.00 0.00 0.00 0.00 0.00 0.00 0.00 0.00 0.00 0.00 0.00 0.00 0.00 0.00 0.00 0.00 0.00 0.01 0.05 0.08 0.09 0.07 0.00 0.01 0.06 0.07 0.06 0.03 0.05 0.06 0.09 0.12
0.00 0.00 0.00 0.00 0.00 0.00 0.00 0.00 0.00 0.00 0.00 0.00 0.00 0.00 0.00 0.00 0.00 0.00 0.00 0.00 0.00 0.00 0.00 0.00 0.00 0.00 0.00 0.00 0.00 0.00 0.00 0.00 0.00 0.00 0.02 0.03 0.04 0.09 0.05 0.01 0.04 0.06 0.06 0.03 0.03 0.02 0.04 0.07 0.10
0.00 0.00 0.00 0.00 0.00 0.00 0.00 0.00 0.00 0.00 0.00 0.00 0.00 0.00 0.00 0.00 0.00 0.00 0.00 0.00 0.00 0.00 0.00 0.00 0.00 0.00 0.00 0.00 0.00 0.00 0.00 0.00 0.00 0.00 0.00 0.01 0.04 0.05 0.01 0.02 0.06 0.08 0.06 0.04 0.01 0.00 0.02 0.03 0.06
0.00 0.00 0.00 0.00 0.00 0.00 0.00 0.00 0.00 0.00 0.00 0.00 0.00 0.00 0.00 0.00 0.00 0.00 0.00 0.00 0.00 0.00 0.00 0.00 0.00 0.00 0.00 0.00 0.00 0.00 0.00 0.00 0.00 0.00 0.00 0.01 0.03 0.01 0.01 0.03 0.08 0.06 0.04 0.08 0.06 0.06 0.04 0.02 0.01
0.00 0.00 0.00 0.00 0.00 0.00 0.00 0.00 0.00 0.00 0.00 0.00 0.00 0.00 0.00 0.00 0.00 0.00 0.00 0.00 0.00 0.00 0.00 0.00 0.00 0.00 0.00 0.00 0.00 0.00 0.00 0.02 0.00 0.00 0.00 0.01 0.01 0.00 0.01 0.04 0.09 0.08 0.07 0.09 0.13 0.07 0.06 0.05 0.04
0.00 0.00 0.00 0.00 0.00 0.00 0.00 0.00 0.00 0.00 0.00 0.00 0.00 0.00 0.00 0.00 0.00 0.00 0.00 0.00 0.00 0.00 0.00 0.00 0.00 0.00 0.00 0.00 0.00 0.00 0.01 0.03 0.00 0.02 0.00 0.00 0.00 0.00 0.00 0.00 0.02 0.02 0.06 0.02 0.03 0.03 0.01 0.03 0.02
0.00 0.00 0.00 0.00 0.00 0.00 0.00 0.00 0.00 0.00 0.00 0.00 0.00 0.00 0.00 0.00 0.00 0.00 0.00 0.00 0.00 0.00 0.00 0.00 0.00 0.00 0.00 0.00 0.00 0.00 0.00 0.04 0.06 0.04 0.00 0.00 0.00 0.00 0.00 0.00 0.00 0.01 0.04 0.02 0.01 0.01 0.00 0.01 0.04
MSLP
1012.13 1011.61 1010.01 1008.89 1007.35 1004.92 1001.93 1000.63 1000.01 1000.10 1000.24 1000.50 1000.68 1000.72 1000.32 1000.28 1000.46 1000.85 1002.27 1002.93 1003.54 1004.62 1006.75 1008.16 1008.93 1009.37 1009.89 1010.27 1010.63 1010.97 1011.43 1011.89 1012.07 1012.26 1012.52 1012.71 1013.02 1013.26 1013.43 1013.61 1013.82 1013.94 1013.97 1013.96 1014.05 1014.12 1014.17 1014.16 1014.10
1010.73 1010.38 1009.57 1007.50 1005.39 1002.32 999.92 999.82 999.80 999.70 1000.09 1000.80 1000.72 1000.65 1000.58 1000.38 1000.68 1001.30 1001.58 1003.21 1003.90 1004.91 1006.56 1007.53 1008.81 1009.38 1009.81 1010.28 1010.62 1010.90 1011.22 1011.63 1012.04 1012.20 1012.41 1012.60 1012.87 1013.06 1013.27 1013.47 1013.65 1013.82 1013.84 1013.80 1013.84 1013.89 1013.95 1013.99 1013.99
1010.95 1009.88 1008.16 1005.81 1003.85 1001.12 999.29 1000.08 999.70 999.78 1000.69 1000.77 1000.62 1000.86 1000.69 1000.71 1001.34 1002.03 1003.02 1003.55 1004.07 1004.99 1006.11 1007.05 1008.33 1009.12 1009.59 1010.17 1010.45 1010.83 1011.08 1011.49 1011.94 1012.15 1012.30 1012.47 1012.71 1012.98 1013.13 1013.24 1013.42 1013.57 1013.65 1013.64 1013.62 1013.68 1013.67 1013.76 1013.81
1009.90 1009.34 1007.83 1004.90 1002.13 1000.55 999.71 999.30 999.25 1000.04 1000.12 1000.89 1000.68 1000.60 1000.68 1001.49 1001.92 1002.86 1003.29 1003.68 1004.14 1005.08 1005.73 1006.86 1008.13 1008.77 1009.23 1009.88 1010.18 1010.56 1010.91 1011.30 1011.66 1011.89 1012.14 1012.33 1012.55 1012.80 1012.96 1013.08 1013.17 1013.28 1013.40 1013.42 1013.41 1013.45 1013.45 1013.53 1013.59
1009.03 1007.49 1005.52 1003.37 1002.05 1000.61 999.66 999.98 999.91 999.92 1000.04 1000.23 1000.46 1000.67 1000.84 1001.81 1002.52 1003.06 1003.42 1003.76 1004.05 1004.81 1005.68 1006.56 1007.93 1008.56 1009.01 1009.59 1010.02 1010.39 1010.63 1011.04 1011.60 1011.77 1012.02 1012.21 1012.43 1012.64 1012.78 1012.89 1012.96 1013.03 1013.05 1013.13 1013.12 1013.17 1013.25 1013.33 1013.34
1008.18 1006.71 1004.49 1002.29 1000.92 1000.18 999.80 1000.25 1000.32 1000.17 1000.05 999.91 1000.31 1000.76 1000.90 1001.45 1002.03 1002.72 1003.06 1003.15 1003.53 1003.82 1005.03 1005.63 1007.56 1008.15 1008.87 1009.39 1009.83 1010.23 1010.43 1010.72 1011.27 1011.69 1011.93 1012.12 1012.27 1012.50 1012.59 1012.65 1012.68 1012.79 1012.89 1012.94 1012.95 1012.99 1013.02 1013.14 1013.20
1007.09 1005.31 1003.87 1002.15 1000.67 999.74 999.83 1000.26 1000.19 1000.02 999.94 999.84 1000.04 1000.71 1000.99 1001.00 1002.09 1002.68 1002.75 1002.86 1002.95 1003.12 1004.09 1005.16 1006.82 1008.00 1008.81 1009.29 1009.64 1009.91 1010.21 1010.39 1010.85 1011.36 1011.68 1011.93 1012.11 1012.28 1012.39 1012.48 1012.47 1012.60 1012.74 1012.80 1012.76 1012.73 1012.82 1012.88 1013.00
1006.99 1005.43 1003.79 1002.24 1001.04 1000.02 999.91 1000.39 1000.54 1000.30 1000.12 1000.15 1001.24 1001.20 1000.76 1000.89 1001.58 1002.19 1002.09 1001.73 1001.96 1002.30 1003.04 1004.43 1005.48 1007.08 1008.07 1008.75 1009.57 1009.82 1010.00 1010.27 1010.56 1011.04 1011.41 1011.71 1011.97 1012.04 1012.07 1012.16 1012.17 1012.32 1012.49 1012.60 1012.60 1012.53 1012.60 1012.62 1012.69
1006.77 1005.40 1003.36 1002.09 1001.05 1000.30 1000.06 999.82 999.99 1000.54 1001.26 1001.03 1000.99 1001.10 1001.39 1001.46 1001.63 1001.95 1001.66 1001.46 1001.27 1001.66 1002.26 1003.41 1004.47 1005.80 1007.05 1007.45 1008.41 1009.58 1009.88 1010.12 1010.55 1010.97 1011.23 1011.36 1011.33 1010.95 1011.13 1011.10 1011.69 1011.97 1012.24 1012.34 1012.34 1012.31 1012.32 1012.37 1012.28
1006.10 1004.43 1003.02 1001.97 1000.91 1000.37 999.95 999.78 999.82 1000.19 1000.29 1000.82 1000.83 1000.93 1000.87 1000.71 1001.07 1001.09 1000.99 1000.68 1000.64 1000.66 1001.49 1002.65 1004.03 1004.90 1005.88 1006.47 1007.06 1008.53 1009.13 1009.59 1009.88 1010.10 1010.26 1010.54 1010.56 1010.51 1010.52 1010.92 1011.45 1011.56 1011.79 1011.93 1011.87 1011.87 1011.91 1012.00 1011.28
1004.82 1003.20 1002.81 1001.59 1000.90 1000.49 1000.04 999.87 999.98 1000.23 1000.27 1000.46 1000.52 1000.75 1000.92 1001.01 1000.94 1000.82 1000.51 1000.18 1000.11 1000.22 1000.52 1001.74 1003.11 1004.38 1005.09 1005.69 1006.07 1007.29 1008.06 1008.55 1008.85 1009.33 1009.57 1009.75 1009.88 1009.91 1009.95 1009.89 1010.04 1010.67 1010.88 1010.81 1010.76 1011.07 1011.18 1010.48 1010.52
1003.51 1002.82 1002.56 1001.88 1001.28 1000.84 1000.10 999.85 999.56 1000.07 1000.26 1000.46 1000.47 1000.84 1000.92 1000.82 1000.54 1000.28 1000.02 999.94 999.75 999.65 1000.08 1001.07 1002.43 1003.90 1004.79 1005.10 1005.54 1006.08 1006.85 1007.38 1007.89 1008.34 1009.18 1009.58 1009.72 1009.79 1009.92 1009.63 1009.45 1009.71 1009.79 1009.82 1010.00 1009.79 1009.81 1010.23 1010.31
1002.10 1001.93 1001.94 1001.44 1001.22 1000.69 1000.15 999.93 999.73 999.72 1000.22 1000.31 1000.30 1000.55 1000.57 1000.14 999.92 999.79 999.61 999.58 999.57 999.73 1000.14 1000.49 1001.80 1003.16 1004.30 1005.02 1004.92 1005.68 1006.03 1006.66 1007.21 1007.70 1008.42 1009.15 1009.06 1009.06 1009.27 1009.46 1009.98 1009.73 1009.46 1009.82 1009.76 1009.79 1010.04 1010.26 1010.40
1002.04 1001.61 1001.22 1001.06 1000.81 1000.46 1000.10 999.40 999.61 999.51 999.70 999.57 999.76 999.82 999.85 999.42 999.27 999.22 999.08 999.15 999.36 999.56 999.84 1000.35 1001.14 1002.49 1003.73 1004.55 1004.66 1005.22 1005.63 1005.97 1006.97 1007.21 1007.68 1008.46 1008.77 1008.79 1008.93 1009.28 1009.85 1009.98 1009.68 1009.69 1009.80 1009.91 1010.15 1010.31 1010.12
1001.48 1000.93 1000.49 1000.02 1000.04 999.82 1000.31 998.71 998.75 999.16 999.09 998.96 998.88 998.95 998.89 998.66 998.52 998.55 998.68 998.69 999.01 999.23 999.58 1000.24 1000.70 1001.88 1002.95 1003.94 1004.51 1004.86 1005.20 1005.80 1006.48 1006.97 1007.47 1007.99 1008.49 1008.58 1008.92 1009.04 1009.22 1009.42 1009.69 1009.80 1009.60 1009.83 1009.93 1009.92 1009.77
1001.28 1000.86 999.58 999.19 999.43 999.43 1000.05 996.92 998.45 998.71 998.32 997.82 997.65 997.77 997.65 998.14 998.07 998.12 998.30 998.32 998.66 998.92 999.46 999.94 1000.29 1001.45 1002.68 1003.59 1004.16 1004.66 1004.91 1005.63 1005.81 1006.32 1006.88 1007.70 1008.21 1008.34 1008.55 1008.84 1008.96 1009.17 1009.43 1009.75 1009.86 1009.94 1009.92 1009.81 1009.50
1000.40 998.83 998.32 998.57 998.69 998.59 998.42 996.32 997.40 997.80 997.79 997.61 997.38 997.23 997.71 997.72 997.70 997.52 997.67 997.86 998.27 998.70 999.14 999.57 1000.22 1001.04 1002.63 1003.67 1004.08 1004.71 1004.94 1005.34 1005.57 1005.84 1006.42 1006.82 1007.49 1007.71 1008.39 1008.67 1008.71 1009.07 1009.32 1009.36 1009.46 1009.72 1009.64 1009.52 1009.08
998.36 998.35 998.76 997.77 997.78 997.40 996.77 995.90 996.16 997.03 997.33 997.32 996.80 996.50 996.44 996.94 996.85 996.86 996.94 997.00 997.47 998.15 998.94 999.61 1000.30 1001.26 1002.44 1003.40 1004.26 1004.63 1004.97 1005.36 1005.33 1005.74 1006.16 1006.49 1007.00 1007.30 1007.96 1008.22 1008.55 1008.90 1008.99 1008.98 1009.22 1009.26 1009.27 1009.02 1009.10
998.91 998.45 997.36 996.93 996.72 996.94 996.41 995.69 995.35 996.21 996.58 996.36 996.21 995.97 995.62 996.05 996.33 996.28 996.07 996.42 997.75 998.42 999.12 999.77 1000.61 1001.26 1002.21 1003.04 1003.59 1004.04 1004.50 1004.96 1005.24 1005.54 1006.03 1006.60 1006.86 1007.04 1007.55 1007.89 1008.40 1008.69 1008.75 1008.75 1008.80 1008.96 1009.09 1009.05 1009.03
999.11 998.37 997.04 997.15 996.48 996.33 996.06 995.38 995.16 995.39 995.51 995.74 995.76 995.49 995.51 995.61 995.63 995.28 995.41 996.59 997.88 998.84 999.54 1000.30 1000.82 1001.41 1002.25 1002.85 1003.24 1003.38 1003.95 1004.37 1004.76 1005.07 1005.65 1006.37 1006.62 1006.83 1007.54 1007.93 1008.14 1008.25 1008.40 1008.40 1008.53 1008.76 1008.80 1009.12 1009.17
997.81 997.44 997.59 996.96 996.80 996.45 996.57 995.31 995.07 995.32 995.42 995.32 995.10 994.97 994.83 994.59 994.50 994.72 995.09 996.56 997.92 998.95 999.74 1000.30 1000.98 1001.73 1002.37 1002.62 1003.06 1003.66 1004.07 1004.29 1004.83 1004.98 1005.49 1006.00 1006.58 1006.88 1007.30 1007.58 1007.89 1007.90 1008.07 1007.93 1008.15 1008.46 1008.68 1008.55 1008.80
996.39 997.30 997.64 997.40 997.15 996.30 996.80 994.11 994.24 994.24 993.81 993.89 993.54 993.49 993.32 993.44 993.61 994.00 994.35 996.48 997.99 999.02 999.92 1000.56 1001.31 1002.13 1002.35 1002.78 1003.18 1003.64 1003.77 1003.93 1003.94 1004.39 1004.64 1005.55 1006.28 1006.65 1006.93 1007.32 1007.42 1007.67 1007.70 1007.85 1007.95 1008.06 1008.09 1008.30 1008.40
994.61 997.11 996.95 997.15 997.15 997.09 996.39 995.25 993.57 993.52 992.77 992.49 992.19 992.11 992.14 992.45 992.96 993.19 994.01 996.47 997.93 999.12 999.98 1000.79 1001.60 1002.15 1002.48 1002.98 1003.14 1003.67 1003.59 1003.79 1004.13 1004.48 1005.22 1005.96 1006.35 1006.81 1007.06 1007.05 1007.19 1007.40 1007.52 1007.54 1007.69 1007.78 1007.86 1008.07 1008.08
996.52 996.57 996.65 996.70 996.77 995.68 995.49 994.90 992.55 992.26 991.71 991.01 990.79 990.79 990.93 991.31 991.92 992.89 994.83 996.73 998.06 999.21 1000.13 1000.92 1001.66 1002.13 1002.72 1002.93 1003.29 1003.59 1003.88 1004.02 1004.10 1004.74 1005.01 1005.96 1006.54 1006.89 1006.95 1006.62 1006.82 1007.06 1007.25 1007.27 1007.30 1007.52 1007.56 1007.69 1007.72
995.36 995.64 995.71 995.93 995.31 993.49 994.55 993.71 991.30 991.31 990.99 990.60 990.41 990.45 990.45 991.11 992.49 994.04 995.68 996.89 998.13 999.10 999.98 1000.85 1001.51 1002.26 1002.78 1003.06 1003.48 1003.76 1004.14 1004.44 1004.79 1005.03 1005.34 1005.78 1006.26 1006.77 1006.86 1006.57 1006.91 1006.89 1007.08 1007.12 1007.14 1007.07 1007.25 1007.46 1007.61
993.90 994.03 993.19 992.92 992.86 992.92 993.07 991.60 990.54 990.34 990.10 990.38 990.09 990.40 991.21 992.37 993.51 994.81 995.97 996.96 997.95 998.98 999.87 1000.49 1001.49 1002.16 1002.68 1003.11 1003.48 1003.74 1004.12 1004.15 1004.40 1005.06 1005.19 1005.51 1006.07 1006.35 1006.41 1006.58 1006.79 1006.90 1006.95 1006.82 1006.75 1006.68 1006.83 1007.01 1007.35
992.65 992.73 992.56 992.74 991.97 991.54 990.34 989.80 990.12 989.61 989.46 989.77 989.66 990.29 991.25 992.65 993.87 994.92 996.05 996.96 997.91 998.93 999.74 1000.54 1001.29 1001.99 1002.58 1003.07 1003.41 1003.80 1004.22 1004.23 1004.94 1005.29 1005.47 1005.60 1006.13 1006.15 1006.27 1006.40 1006.76 1006.70 1006.50 1006.78 1006.66 1006.82 1006.92 1007.13 1007.29
991.68 991.82 993.05 992.20 991.08 990.18 990.06 989.13 988.96 988.64 988.22 988.93 989.35 990.01 991.05 992.76 993.91 995.07 996.07 997.00 998.09 999.04 999.83 1000.64 1001.31 1001.93 1002.49 1002.99 1003.33 1003.71 1004.12 1004.69 1005.06 1005.35 1005.33 1005.98 1005.98 1005.77 1006.20 1006.57 1006.70 1006.65 1006.64 1006.72 1006.90 1007.02 1007.01 1007.12 1007.31
990.95 990.55 991.43 991.71 990.91 989.99 989.57 989.07 988.43 988.55 988.17 988.50 988.93 989.56 991.26 992.69 993.87 995.13 996.07 997.15 998.24 999.10 999.93 1000.76 1001.29 1001.90 1002.41 1002.80 1003.24 1003.73 1004.12 1004.72 1004.91 1005.33 1005.49 1006.13 1006.19 1006.23 1006.09 1006.05 1006.22 1006.21 1006.54 1006.65 1006.88 1007.17 1007.20 1007.16 1007.31
990.94 990.31 990.81 989.87 990.02 989.97 989.13 989.00 989.39 988.91 989.02 989.14 988.95 990.07 991.52 992.75 993.92 994.97 995.96 997.12 998.10 998.95 999.87 1000.61 1001.18 1001.62 1002.25 1002.57 1003.00 1003.66 1004.08 1004.67 1005.11 1005.44 1005.58 1005.94 1006.32 1006.15 1005.99 1006.01 1005.98 1006.05 1006.58 1006.81 1007.20 1007.33 1007.35 1007.34 1007.52
Thickness
5787 5791 5804 5801 5779 5792 5799 5815 5841 5826 5828 5845 5848 5836 5833 5837 5819 5800 5850 5847 5841 5828 5808 5793 5783 5776 5769 5763 5760 5757 5751 5745 5742 5738 5733 5730 5725 5722 5720 5717 5714 5712 5712 5712 5711 5710 5711 5713 5716
5793 5797 5796 5794 5777 5788 5817 5836 5821 5835 5840 5843 5842 5838 5828 5819 5843 5840 5839 5841 5835 5823 5807 5796 5781 5773 5766 5759 5756 5754 5749 5743 5738 5734 5729 5725 5721 5718 5715 5711 5710 5708 5707 5707 5707 5706 5705 5707 5709
5789 5796 5784 5786 5786 5794 5822 5824 5832 5835 5836 5833 5830 5837 5831 5821 5835 5835 5840 5836 5831 5819 5808 5797 5782 5771 5763 5756 5753 5749 5746 5740 5734 5730 5726 5722 5718 5713 5710 5708 5705 5703 5703 5702 5702 5701 5702 5702 5703
5784 5781 5784 5776 5789 5819 5827 5839 5845 5828 5837 5832 5833 5819 5838 5838 5832 5833 5836 5832 5823 5814 5807 5795 5780 5770 5762 5755 5753 5748 5743 5737 5732 5728 5723 5719 5714 5710 5707 5704 5701 5700 5697 5697 5697 5697 5697 5698 5699
5785 5783 5769 5780 5789 5816 5837 5835 5835 5826 5830 5828 5830 5814 5820 5822 5835 5832 5827 5824 5816 5810 5802 5793 5778 5769 5761 5755 5749 5745 5742 5735 5727 5724 5719 5715 5710 5705 5702 5699 5697 5695 5694 5693 5692 5693 5692 5692 5694
5763 5778 5764 5775 5798 5820 5830 5826 5824 5821 5829 5834 5821 5813 5819 5834 5827 5827 5826 5820 5819 5809 5803 5793 5776 5768 5759 5754 5748 5742 5739 5734 5726 5719 5714 5710 5706 5699 5696 5694 5692 5689 5687 5687 5687 5687 5687 5687 5688
5762 5770 5764 5784 5798 5813 5817 5825 5815 5817 5823 5825 5834 5801 5821 5828 5820 5826 5822 5822 5819 5817 5803 5793 5778 5764 5755 5751 5745 5741 5736 5733 5726 5717 5712 5707 5701 5695 5692 5689 5687 5684 5681 5680 5680 5681 5682 5681 5682
5765 5767 5759 5780 5784 5794 5822 5812 5821 5813 5812 5836 5822 5791 5802 5825 5827 5826 5825 5826 5823 5817 5807 5793 5783 5767 5757 5750 5741 5737 5733 5729 5723 5716 5708 5703 5696 5692 5688 5685 5684 5680 5677 5675 5675 5675 5675 5675 5677
5769 5742 5747 5771 5783 5794 5818 5811 5827 5820 5802 5811 5816 5809 5815 5822 5823 5815 5815 5818 5820 5813 5809 5796 5785 5774 5762 5756 5747 5734 5729 5725 5717 5709 5705 5700 5697 5695 5690 5689 5682 5678 5674 5672 5671 5670 5669 5670 5672
5746 5742 5754 5789 5801 5797 5811 5812 5814 5806 5799 5797 5804 5816 5820 5821 5814 5808 5807 5808 5811 5814 5806 5798 5785 5778 5769 5760 5754 5738 5730 5723 5717 5711 5706 5701 5698 5694 5689 5683 5678 5675 5671 5668 5668 5667 5666 5665 5671
5751 5745 5770 5785 5800 5804 5800 5800 5811 5793 5782 5796 5794 5801 5807 5806 5805 5803 5806 5810 5811 5816 5811 5802 5788 5778 5770 5762 5757 5744 5734 5726 5720 5712 5707 5702 5697 5693 5690 5688 5684 5676 5672 5669 5669 5666 5664 5671 5672
5741 5760 5766 5777 5787 5785 5785 5799 5793 5791 5788 5802 5807 5803 5800 5797 5798 5802 5806 5808 5812 5812 5808 5799 5789 5777 5768 5763 5757 5749 5739 5731 5723 5716 5705 5698 5694 5690 5686 5684 5681 5676 5672 5671 5668 5668 5669 5666 5666
5748 5759 5766 5775 5778 5781 5788 5778 5781 5783 5794 5801 5803 5798 5794 5796 5799 5807 5811 5810 5810 5805 5801 5797 5789 5777 5767 5758 5757 5749 5742 5733 5724 5716 5707 5697 5694 5691 5686 5681 5672 5670 5669 5665 5664 5664 5662 5660 5659
5754 5755 5757 5765 5765 5772 5766 5777 5778 5782 5794 5795 5794 5791 5793 5796 5800 5804 5807 5804 5804 5801 5797 5794 5788 5778 5768 5758 5754 5749 5741 5733 5722 5715 5707 5698 5691 5688 5683 5677 5669 5663 5662 5659 5657 5657 5654 5653 5656
5750 5737 5749 5755 5762 5760 5761 5755 5762 5784 5790 5787 5788 5791 5792 5797 5803 5801 5803 5802 5803 5800 5797 5789 5786 5779 5768 5758 5752 5747 5741 5731 5721 5713 5705 5696 5688 5684 5678 5673 5668 5662 5656 5653 5654 5651 5650 5650 5652
5724 5729 5719 5755 5761 5759 5752 5740 5769 5785 5782 5782 5788 5790 5792 5793 5796 5801 5801 5800 5803 5799 5791 5789 5787 5776 5765 5756 5750 5744 5738 5729 5721 5713 5704 5694 5685 5680 5674 5668 5664 5657 5652 5648 5644 5643 5642 5642 5646
5718 5712 5730 5737 5760 5757 5754 5747 5770 5782 5775 5771 5779 5782 5782 5786 5793 5800 5798 5799 5800 5795 5790 5785 5781 5771 5759 5751 5746 5737 5732 5725 5719 5712 5703 5694 5685 5679 5670 5663 5659 5652 5647 5643 5640 5636 5636 5637 5642
5716 5718 5718 5726 5754 5760 5755 5756 5772 5771 5767 5764 5775 5781 5784 5783 5789 5797 5796 5803 5802 5795 5788 5781 5775 5766 5756 5747 5737 5732 5726 5719 5716 5708 5700 5691 5682 5675 5666 5660 5653 5646 5641 5638 5634 5631 5632 5634 5633
5726 5719 5725 5743 5762 5746 5744 5755 5769 5765 5760 5763 5769 5775 5780 5781 5786 5792 5800 5802 5791 5786 5778 5773 5765 5760 5751 5742 5733 5726 5719 5714 5709 5704 5696 5685 5677 5670 5662 5655 5646 5639 5634 5631 5628 5625 5623 5623 5626
5708 5707 5720 5736 5756 5750 5744 5745 5760 5764 5760 5764 5764 5768 5767 5771 5778 5789 5796 5791 5781 5774 5769 5763 5758 5753 5745 5738 5732 5729 5720 5714 5708 5701 5693 5682 5672 5665 5654 5646 5639 5633 5628 5625 5621 5618 5616 5614 5616
5705 5706 5710 5721 5738 5741 5730 5726 5740 5751 5756 5759 5762 5763 5766 5773 5777 5783 5788 5782 5773 5766 5761 5757 5751 5745 5739 5736 5729 5720 5715 5708 5698 5692 5683 5677 5665 5657 5649 5640 5633 5630 5624 5621 5618 5614 5610 5610 5612
5698 5718 5716 5713 5708 5695 5730 5708 5733 5746 5754 5755 5762 5765 5771 5776 5783 5785 5788 5774 5765 5761 5757 5751 5744 5736 5734 5729 5720 5712 5706 5698 5698 5691 5683 5671 5662 5653 5646 5637 5633 5626 5623 5618 5616 5615 5612 5608 5607
5718 5716 5714 5710 5701 5700 5706 5702 5728 5751 5744 5753 5763 5769 5775 5780 5782 5786 5786 5770 5763 5757 5750 5744 5737 5731 5727 5721 5717 5707 5703 5700 5693 5684 5672 5663 5655 5647 5640 5636 5631 5626 5623 5621 5618 5614 5611 5608 5608
5712 5705 5706 5708 5702 5683 5705 5702 5724 5744 5748 5761 5770 5775 5780 5785 5788 5786 5777 5766 5757 5751 5744 5737 5730 5724 5719 5716 5710 5703 5697 5691 5685 5675 5669 5657 5648 5642 5639 5640 5634 5630 5626 5624 5620 5616 5613 5610 5611
5699 5690 5670 5665 5674 5687 5716 5706 5739 5758 5761 5764 5765 5772 5781 5783 5778 5770 5761 5756 5750 5744 5738 5731 5725 5717 5713 5709 5702 5698 5691 5684 5675 5670 5662 5655 5647 5640 5638 5639 5633 5632 5628 5625 5623 5622 5618 5616 5615
5688 5693 5689 5668 5686 5698 5722 5707 5740 5769 5772 5770 5775 5775 5773 5768 5766 5760 5757 5753 5747 5741 5735 5729 5720 5713 5709 5703 5698 5694 5687 5683 5678 5668 5663 5655 5648 5644 5643 5640 5636 5633 5630 5630 5630 5628 5625 5624 5621
5685 5683 5724 5710 5731 5718 5743 5751 5759 5770 5770 5769 5772 5774 5770 5764 5760 5758 5754 5750 5745 5738 5732 5725 5718 5711 5705 5699 5695 5689 5683 5679 5668 5663 5658 5655 5648 5647 5644 5642 5637 5636 5637 5633 5634 5631 5629 5628 5625
5690 5720 5679 5707 5692 5700 5726 5740 5736 5757 5769 5770 5771 5771 5771 5764 5759 5754 5751 5746 5740 5734 5729 5722 5715 5707 5702 5697 5693 5686 5680 5673 5667 5661 5657 5650 5650 5651 5646 5642 5639 5639 5639 5637 5634 5632 5632 5631 5628
5678 5690 5696 5710 5719 5708 5708 5728 5768 5761 5775 5772 5778 5779 5768 5762 5757 5752 5748 5743 5736 5732 5724 5715 5710 5703 5698 5695 5690 5682 5677 5669 5666 5659 5655 5649 5648 5647 5647 5648 5646 5645 5642 5641 5637 5632 5632 5632 5631
5686 5692 5696 5696 5698 5724 5735 5732 5758 5765 5768 5770 5778 5773 5768 5763 5757 5753 5747 5740 5733 5727 5720 5712 5707 5703 5697 5695 5689 5680 5675 5668 5662 5657 5654 5651 5647 5649 5649 5650 5650 5648 5643 5643 5637 5634 5633 5632 5630